This is the latest recevied weather packets stored in our database for station/object W1LBM. If no packets are shown the sender has not sent any weather packets the latest 10 day(s).
| Time | Temp. | Humidity | Pressure | Rain* | Wind** | Luminosity | Snow |
|---|---|---|---|---|---|---|---|
| 1777649613 | 12.78° C | 59% | 1013.3 hPa | 0 mm | - | 780 W/m² | - |
| 1777649309 | 11.67° C | 56% | 1013.3 hPa | 0 mm | - | 209 W/m² | - |
| 1777649006 | 12.22° C | 53% | 1013.5 hPa | 0 mm | - | 269 W/m² | - |
| 1777648704 | 12.22° C | 59% | 1013.5 hPa | 0 mm | - | 452 W/m² | - |
| 1777648400 | 11.67° C | 60% | 1013.4 hPa | 0 mm | - | 904 W/m² | - |
| 1777648096 | 11.67° C | 58% | 1013.6 hPa | 0 mm | - | 258 W/m² | - |
| 1777647793 | 12.78° C | 55% | 1013.5 hPa | 0 mm | - | 300 W/m² | - |
| 1777647489 | 11.67° C | 59% | 1013.6 hPa | 0 mm | - | 790 W/m² | - |
| 1777647186 | 11.67° C | 58% | 1013.5 hPa | 0 mm | - | 775 W/m² | - |
| 1777646883 | 11.67° C | 60% | 1013.7 hPa | 0 mm | - | 327 W/m² | - |
| 1777646578 | 11.11° C | 60% | 1013.7 hPa | 0 mm | - | 330 W/m² | - |
| 1777646275 | 11.67° C | 58% | 1013.6 hPa | 0 mm | - | 272 W/m² | - |
| 1777645972 | 11.67° C | 59% | 1013.6 hPa | 0 mm | - | 299 W/m² | - |
| 1777645669 | 11.67° C | 56% | 1013.8 hPa | 0 mm | - | 231 W/m² | - |
| 1777645365 | 11.67° C | 56% | 1013.7 hPa | 0 mm | - | 211 W/m² | - |
| 1777645060 | 12.22° C | 57% | 1013.6 hPa | 0 mm | - | 242 W/m² | - |
| 1777644758 | 11.67° C | 58% | 1013.5 hPa | 0 mm | - | 629 W/m² | - |
| 1777644455 | 11.11° C | 59% | 1013.6 hPa | 0 mm | - | 329 W/m² | - |
| 1777644151 | 10.56° C | 58% | 1013.6 hPa | 0 mm | - | 607 W/m² | - |
| 1777643847 | 10.56° C | 58% | 1013.5 hPa | 0 mm | - | 116 W/m² | - |
| 1777643546 | 11.67° C | 57% | 1013.6 hPa | 0 mm | - | 126 W/m² | - |
| 1777643242 | 11.11° C | 59% | 1013.7 hPa | 0 mm | - | 112 W/m² | - |
| 1777642939 | 10.56° C | 57% | 1013.7 hPa | 0 mm | - | 177 W/m² | - |
| 1777642635 | 10.56° C | 60% | 1013.5 hPa | 0 mm | - | 216 W/m² | - |
| 1777642332 | 10.56° C | 59% | 1013.4 hPa | 0 mm | - | 176 W/m² | - |
* Rain latest hour (hover to see other rain measurements)
** Current wind speed in m/s (hover to see current wind gust speed)